SCP
0 0 0 0 0 0 0 0 0 0 0 0 0 1 1 1 1 1 1 1 1 1 1 1 1 1 1 1 1 1 1 1 1 1 1 1 1 1 1 1 0 0 0 0
0 0 0 0 0 0 0 0 0 0 0 0 0 1 1 1 1 1 1 1 1 1 1 1 1 1 1 1 1 1 1 1 1 1 1 1 1 1 1 0 0 0 0 0
0 0 0 0 0 0 0 0 0 0 0 0 1 1 1 1 1 1 1 1 1 1 1 1 1 1 1 1 1 1 1 1 1 1 1 1 1 1 0 0 0 0 0 0
0 0 0 0 0 0 0 0 0 0 0 1 1 1 1 1 1 1 1 1 1 1 1 1 1 1 1 1 1 1 1 1 1 1 1 1 1 0 0 0 0 0 0 0
0 0 0 0 0 0 0 0 0 0 1 1 1 1 1 1 1 1 1 1 1 1 1 1 1 1 1 1 1 1 1 1 1 1 1 1 1 1 0 0 0 0 0 0
0 0 0 0 0 0 0 0 0 0 1 1 1 1 1 1 1 1 1 1 1 1 1 1 1 1 1 1 1 1 1 1 1 1 1 1 1 1 1 1 1 0 0 0
0 0 0 0 0 0 0 0 1 1 1 1 1 1 1 1 1 1 1 1 1 1 1 1 1 1 1 1 1 1 1 1 1 1 1 1 1 1 1 1 1 1 1 0
0 0 0 0 0 0 1 1 1 1 1 1 1 1 1 1 1 1 1 1 1 1 1 1 1 1 1 1 1 1 1 1 1 1 0 0 1 1 1 1 1 1 1 1
0 0 0 0 0 1 1 1 1 1 1 1 1 1 1 1 1 1 1 1 1 1 1 1 1 1 1 1 1 1 1 1 1 1 1 0 0 0 1 1 1 1 1 1
0 0 0 0 0 1 1 1 1 1 1 1 1 1 1 1 1 1 1 1 1 1 1 1 1 1 1 1 1 1 1 1 1 1 1 0 0 0 0 0 0 0 0 0
0 0 0 0 0 1 1 1 1 1 1 1 1 1 1 1 1 1 1 1 1 1 1 1 1 1 1 1 1 1 1 1 1 0 0 0 0 0 0 0 0 0 0 0
0 0 0 0 0 1 1 1 1 1 1 1 1 1 1 1 1 1 1 0 1 1 1 1 1 1 1 1 1 1 1 0 0 0 0 0 0 0 0 0 0 0 0 0
0 0 0 0 0 1 1 1 1 1 1 1 1 1 1 1 1 1 0 0 0 0 1 1 0 1 1 1 1 1 0 0 0 0 0 0 0 0 0 0 0 0 0 0
0 0 0 0 0 1 1 1 1 1 1 1 1 1 1 1 1 0 0 0 0 0 0 0 0 0 0 0 0 0 0 0 0 0 0 0 0 0 0 0 0 0 0 0
0 0 0 0 0 1 1 1 1 1 1 1 1 1 1 1 0 0 0 0 0 0 0 0 0 0 0 0 0 0 0 0 0 0 0 0 0 0 0 0 0 0 0 0
0 0 0 0 0 0 0 0 1 1 1 0 0 0 0 0 0 0 0 0 0 0 0 0 0 0 0 0 0 0 0 0 0 0 0 0 0 0 0 0 0 0 0 0
0 0 0 0 0 0 0 0 0 0 0 0 0 0 0 0 0 0 0 0 0 0 0 0 0 0 0 0 1 0 0 0 0 0 0 0 0 0 0 0 0 0 0 0
0 0 0 0 0 0 0 0 0 0 0 0 0 0 0 0 0 0 0 0 0 0 0 0 0 0 0 1 1 1 0 0 0 0 0 0 0 0 0 0 0 0 0 0
0 0 0 0 0 0 0 0 0 0 0 0 0 0 0 0 0 0 0 0 0 0 0 0 0 0 0 0 1 1 0 0 0 0 0 0 0 0 0 0 0 0 0 0
0 0 0 0 0 0 0 0 0 0 0 0 0 0 0 0 0 0 0 0 0 0 0 0 0 0 0 0 0 0 0 0 0 0 0 0 0 0 0 0 0 0 0 0
0 0 0 0 0 0 0 0 0 0 0 0 0 0 0 0 0 0 0 0 0 0 0 0 0 0 0 0 0 0 0 0 0 0 0 0 0 0 0 0 0 0 0 0
0 0 0 0 0 0 0 0 0 0 0 0 0 0 0 0 0 0 0 0 0 0 0 0 0 0 0 0 0 0 0 0 0 0 0 0 0 0 0 0 0 0 0 0
0 0 0 0 0 0 0 0 0 0 0 0 0 0 0 0 0 0 0 0 0 0 0 0 0 0 0 0 0 0 0 0 0 0 0 0 0 0 0 0 0 0 0 0
0 0 0 0 0 0 0 0 0 0 0 0 0 0 0 0 0 0 0 0 0 0 0 0 0 0 0 0 0 0 0 0 0 0 0 0 0 0 0 0 0 0 0 0
0 0 0 0 0 0 0 0 0 0 0 0 0 0 0 0 0 0 0 0 0 0 0 0 0 0 0 0 0 0 0 0 0 0 0 0 0 0 0 0 0 0 0 0
0 0 0 0 0 0 0 0 0 0 0 0 0 0 0 0 0 0 0 0 0 0 0 0 0 0 0 0 0 0 0 0 0 0 0 0 0 0 0 0 0 0 0 0
0 0 0 0 0 0 0 0 0 0 0 0 0 0 0 0 0 0 0 0 0 0 0 0 0 0 0 0 0 0 0 0 0 0 0 0 0 0 0 0 0 0 0 0
Wind_Speed
8 5 8 11 12 13 14 13 11 8 7 5 6 7 7 7 8 8 8 7 8 8 7 7 7 6 6 6 5 5 5 4 4 3 3 3 3 3 3 2 2 2 2 2
10 8 9 11 11 13 14 13 11 9 7 3 4 6 7 8 8 9 8 8 7 7 7 7 6 6 6 6 6 5 5 5 4 4 4 3 3 3 3 3 2 2 3 3
10 10 10 13 12 13 12 10 11 10 4 5 6 7 8 8 8 8 8 7 8 7 6 5 6 6 6 6 6 6 5 5 4 4 4 3 3 3 3 3 3 3 3 3
9 10 15 6 4 8 9 7 6 4 2 4 5 7 6 6 7 7 6 7 7 7 6 5 6 6 7 6 6 6 6 5 5 4 4 4 4 4 3 3 3 3 3 3
9 12 10 6 5 7 8 6 4 4 4 5 7 8 7 6 6 6 6 6 6 6 7 6 6 6 7 6 6 6 6 5 5 5 5 4 4 4 3 3 3 3 4 3
10 12 11 6 5 4 7 7 2 3 5 7 9 7 6 6 6 7 7 6 6 6 7 7 6 6 7 6 6 5 5 4 4 5 5 5 5 4 3 3 3 3 4 3
11 10 5 4 4 7 9 3 3 3 5 7 6 2 7 9 8 8 8 7 7 7 7 6 6 6 6 6 5 4 4 5 4 4 5 5 5 4 3 3 3 3 4 3
9 11 5 4 5 4 3 4 3 4 5 6 6 7 9 9 9 8 8 8 7 7 7 6 6 6 6 5 4 4 5 4 5 4 4 5 5 4 3 4 4 4 4 3
2 1 5 3 2 4 3 2 3 4 6 7 8 8 9 9 9 8 8 7 6 7 7 6 5 5 5 5 5 5 5 5 4 5 4 4 4 4 4 3 2 3 3 3
2 3 3 3 2 1 1 1 2 4 6 8 8 9 9 8 8 8 7 6 6 6 6 6 5 5 5 5 5 5 6 5 4 4 4 4 2 2 2 2 2 2 2 2
3 3 3 2 1 1 2 2 3 5 5 6 8 8 8 7 7 6 6 5 5 5 5 5 5 5 5 5 5 6 6 5 5 4 4 4 3 3 2 3 3 1 1 1
1 1 1 2 1 1 2 3 4 5 6 5 7 8 7 7 6 6 6 5 4 4 5 4 5 5 5 5 5 5 5 5 4 4 4 3 4 4 8 6 6 6 5 3
2 2 2 1 0 1 2 4 4 5 6 6 6 7 7 6 5 5 5 5 4 3 3 3 4 4 4 4 4 5 4 4 3 3 4 3 3 3 4 4 5 5 5 5
0 1 1 1 2 2 3 5 6 6 6 6 6 6 6 5 5 4 4 4 3 3 3 3 3 4 4 5 5 4 4 4 3 3 3 3 3 3 2 3 3 3 4 4
1 1 1 2 3 3 4 5 6 6 6 6 6 5 5 5 4 3 3 3 3 3 2 2 3 3 3 5 5 4 3 3 3 3 3 3 3 3 2 2 2 3 3 4
1 2 3 3 4 3 4 5 5 5 5 5 4 4 4 3 3 3 3 2 2 2 2 2 2 2 3 4 5 4 3 3 2 3 3 3 3 3 3 3 2 2 2 2
2 3 3 4 4 3 3 3 4 4 3 3 3 3 3 3 3 3 3 2 2 1 1 1 2 2 3 3 4 3 3 4 5 3 2 2 2 3 3 3 2 2 2 2
1 1 1 2 3 3 3 3 3 4 3 3 3 3 3 3 3 2 3 3 2 2 1 1 2 2 3 3 3 2 3 3 4 3 2 2 2 3 3 3 3 3 2 4
2 2 2 2 2 3 3 3 3 3 4 4 3 3 3 2 2 2 3 3 3 3 2 2 2 2 3 3 2 3 3 3 3 3 3 3 3 2 2 2 2 2 2 2
2 2 2 2 2 2 3 3 3 3 3 4 4 4 4 3 3 3 3 3 1 1 2 2 2 2 3 3 3 3 3 3 3 3 3 3 3 2 2 2 2 3 3 3
2 2 3 3 2 2 2 3 3 3 3 4 4 4 4 3 3 3 4 3 2 2 2 3 2 2 2 2 4 3 3 3 3 3 3 3 3 3 3 3 3 3 3 3
1 2 2 3 3 2 2 2 3 3 3 3 4 4 4 4 4 4 4 2 2 3 3 3 3 1 1 2 3 3 3 3 3 2 2 3 3 3 3 3 3 3 3 3
1 1 2 2 2 2 3 3 3 3 4 4 4 5 5 4 3 4 4 3 3 3 3 2 2 3 2 4 3 3 3 3 3 3 3 3 2 2 3 3 3 3 3 3
1 1 2 2 2 3 4 3 3 3 4 4 4 5 5 4 4 4 3 3 3 4 3 2 4 3 5 4 3 3 3 3 3 3 3 3 3 3 3 3 3 3 3 3
1 1 2 3 3 3 3 3 4 4 4 4 4 5 5 4 4 4 3 4 4 5 4 5 6 6 5 4 3 3 3 2 2 2 3 3 2 3 3 3 3 3 3 3
2 2 2 3 2 2 3 3 3 4 4 4 4 4 4 4 4 4 4 5 5 5 4 4 5 6 5 4 4 3 3 3 4 3 2 2 3 3 3 3 4 3 3 3
2 2 2 2 3 3 3 3 3 3 3 4 4 4 4 4 4 4 4 4 5 4 4 3 4 4 4 3 3 3 3 3 3 3 3 3 3 3 3 4 3 3 3 3
Wind_Direction
240 225 208 209 209 211 223 236 244 231 228 202 179 178 165 158 153 152 147 147 145 140 134 133 130 130 126 122 119 121 130 134 134 137 138 135 127 126 126 129 132 127 127 117
216 214 214 217 216 217 224 232 240 242 228 152 160 163 157 159 161 158 150 147 142 139 136 137 135 131 126 125 121 120 118 118 125 133 131 128 127 123 122 116 101 96 95 100
216 205 213 218 214 216 217 223 233 234 222 145 162 166 169 166 163 159 152 148 144 137 135 135 132 129 129 126 124 121 114 112 117 128 130 130 126 119 118 114 108 106 99 98
217 204 222 208 192 217 215 216 233 239 185 177 169 160 155 154 152 147 143 141 136 135 136 133 129 128 126 127 126 121 115 115 118 122 125 128 125 121 119 112 106 103 102 102
217 215 216 175 181 202 208 205 215 215 181 163 146 149 135 126 131 134 131 130 129 131 129 124 124 124 124 123 118 115 114 115 118 120 121 121 118 119 123 123 121 118 112 108
219 224 219 182 149 194 220 199 160 180 168 159 168 181 143 133 132 124 120 122 125 125 121 121 122 125 125 121 115 111 109 110 113 121 124 119 118 120 122 133 131 128 114 113
218 222 217 92 141 186 214 170 125 159 166 168 175 105 119 136 130 123 118 118 118 119 116 117 124 128 124 118 116 121 121 121 120 122 125 118 115 123 135 134 123 116 111 105
216 223 195 99 170 198 72 77 134 148 151 151 128 113 124 130 129 123 118 118 119 116 113 115 123 128 124 119 118 122 123 124 124 120 117 117 118 119 124 133 139 135 125 116
248 66 70 103 86 61 52 100 136 146 137 138 134 129 129 130 128 121 117 117 120 116 116 115 118 121 120 116 120 122 119 115 115 113 108 110 119 128 135 143 148 140 137 131
177 126 108 113 99 80 54 74 134 144 142 143 139 134 134 132 128 122 119 118 120 120 120 118 117 116 112 118 126 130 126 123 123 120 114 107 109 119 123 129 132 142 147 142
189 149 153 144 112 106 103 105 122 130 137 142 140 140 138 136 132 124 117 114 119 124 124 124 123 121 122 129 137 133 129 131 133 126 118 112 95 56 60 55 31 17 92 107
207 119 221 136 108 133 138 131 130 132 134 134 137 137 136 131 129 127 125 122 120 119 122 123 127 126 126 134 143 141 137 137 134 133 133 132 125 107 58 59 65 54 42 36
354 7 1 49 96 125 127 127 129 133 132 126 123 129 128 124 125 128 129 127 125 119 117 127 131 131 133 142 147 146 140 140 140 138 141 145 147 143 134 104 84 77 74 69
247 235 151 103 89 87 100 111 115 116 115 114 115 122 124 123 123 127 129 131 131 128 128 136 141 142 148 151 152 155 153 139 146 145 156 157 154 159 160 157 147 130 110 102
242 245 182 111 110 106 113 121 121 118 116 115 117 117 122 129 130 125 124 131 137 142 142 144 148 146 152 160 160 163 164 152 156 154 167 163 162 169 167 162 148 138 134 129
205 157 139 140 137 131 129 130 125 124 123 121 118 116 118 125 128 132 140 147 159 155 147 152 150 143 158 167 167 169 160 143 181 175 173 171 175 177 174 172 169 162 154 143
210 173 161 157 150 151 148 139 132 130 128 124 120 122 127 135 145 149 144 133 136 146 155 153 136 138 165 174 186 181 163 155 183 198 177 179 186 188 183 188 179 166 153 106
253 206 189 179 164 158 151 146 142 138 136 135 140 150 155 163 168 163 150 145 148 148 144 135 118 149 173 171 192 194 168 170 176 176 182 195 195 193 191 190 183 178 165 151
157 158 170 181 178 168 162 159 153 144 142 152 166 175 175 166 170 180 174 177 179 176 148 119 117 173 176 168 189 193 180 174 172 173 183 181 200 200 195 187 185 191 188 180
139 144 148 152 164 169 160 153 151 158 163 169 178 181 184 183 184 188 192 199 196 124 131 130 169 184 182 167 207 195 181 178 178 176 182 191 190 193 198 197 203 203 198 201
136 151 155 155 155 158 161 166 167 170 179 184 189 191 190 195 199 195 203 199 157 146 152 163 198 201 188 163 200 197 189 192 188 187 194 199 202 208 209 208 206 203 201 205
132 160 166 162 160 165 176 181 180 180 185 191 196 193 191 197 201 206 216 220 179 159 200 209 205 142 132 204 210 198 193 196 195 197 202 210 213 216 222 221 211 206 211 212
186 189 190 191 187 190 198 198 194 196 198 198 200 203 208 214 218 217 213 202 199 186 224 227 113 122 187 222 215 202 199 196 198 199 204 212 218 217 216 217 215 213 217 217
231 218 208 207 194 190 197 200 201 201 204 206 206 209 213 215 216 220 216 188 189 194 223 158 145 184 223 230 216 204 200 198 200 198 196 206 212 212 214 214 216 216 220 225
253 230 214 211 208 201 193 194 195 199 209 209 209 208 215 219 219 216 211 201 188 199 206 177 179 198 218 223 208 201 203 207 212 209 202 206 210 213 224 228 227 224 225 225
261 230 218 227 230 219 203 203 207 207 209 208 209 212 216 212 209 205 207 203 200 204 212 193 180 191 206 208 204 204 203 188 195 208 210 213 216 217 224 232 229 226 217 214
256 232 216 223 218 211 211 210 210 213 215 216 216 215 214 209 201 201 203 203 197 197 200 200 199 202 207 203 196 199 203 208 213 210 211 215 217 218 212 220 228 219 206 204